Hourly Data Report for November 26, 2016

All times are specified in Local Standard Time (LST). Add 1 hour to adjust for Daylight Saving Time where and when it is observed.

VICTORIA UNIVERSITY CS
BRITISH COLUMBIA

48°27'25.200" N
123°18'16.600" W
60.10 m
1018598
71783
WYJ

Download Data

Hourly Data (November 2016)
Hourly Data Report for November 26, 2016
TIME Temp Definition
°C
Dew Point Definition
°C
Rel Hum Definition
%
Wind Dir Definition
10's deg

Wind Spd Definition
km/h
Visibility Definition
km
Stn Press Definition
kPa
Hmdx Definition


Wind Chill Definition


Weather Definition


00:00 6.9 6.3 96 2 9   99.86     LegendNANA
01:00 7.0 6.4 96 2 8   99.72     LegendNANA
02:00 6.9 6.4 97 2 8   99.58     LegendNANA
03:00 7.0 6.6 97 3 8   99.44     LegendNANA
04:00 7.5 7.1 97 2 5   99.28     LegendNANA
05:00 8.8 8.0 95 12 4   99.13     LegendNANA
06:00 9.2 8.2 94 15 7   99.02     LegendNANA
07:00 9.3 8.5 95 11 3   99.00     LegendNANA
08:00 5.8 5.2 96 35 11   99.05     LegendNANA
09:00 5.4 4.9 96 34 9   99.04     LegendNANA
10:00 5.6 5.0 96 35 4   99.10     LegendNANA
11:00 5.8 5.2 96 36 7   99.10     LegendNANA
12:00 5.4 4.6 95 1 10   99.11     LegendNANA
13:00 5.5 4.5 93 35 8   99.05     LegendNANA
14:00 5.4 4.3 93 35 9   99.02     LegendNANA
15:00 5.2 4.5 95 35 9   99.03     LegendNANA
16:00 5.2 4.6 95 34 9   99.07     LegendNANA
17:00 5.1 4.5 96 34 7   99.09     LegendNANA
18:00 4.9 4.3 96 32 7   99.13     LegendNANA
19:00 4.7 4.0 95 30 5   99.17     LegendNANA
20:00 4.7 3.9 94 31 4   99.23     LegendNANA
21:00 4.8 3.8 93 33 4   99.29     LegendNANA
22:00 4.6 3.5 93 28 4   99.34     LegendNANA
23:00 4.7 2.6 86 30 6   99.42     LegendNANA

Notes on Data Quality.

Legend

  • E = Estimated
  • M = Missing
  • NA = Not Available
Date modified: